Weather in Damvant

Switzerland     47°22′17″N   6°53′48″E
temp.,
°C
wind,
m/s
gust,
m/s
humid.,
%
clouds,
%
prec.,
mm/h
press.,
hPa
HPBL,
m
25 may, wed
wed2523:00+8sw1180100 0.0 101511
02:00+7wsw1177100 0.0 101511
05:00+6ssw1181100 0.0 101611
08:00+10nw007091 0.0 1017210
11:00+14n225321 0.0 10171397
14:00+16n334955 0.0 10171565
17:00+16nnw445077 0.0 10181450
20:00+13nw257181 0.0 1020293
26 may, thu
thu2623:00+8sw129395 0.0 102417
02:00+7sw229570 0.0 102420
05:00+7sw129288 0.0 102515
08:00+11w11705 0.0 1025264
11:00+15nw22552 0.0 10251128
14:00+18nnw435238 0.0 10241420
17:00+16nnw446348 0.0 1023986
20:00+14nw23782 0.0 1024410
27 may, fri
fri2723:00+9wsw11950 0.0 102612
02:00+8wsw11960 0.0 102616
05:00+8wsw22969 0.0 102518
08:00+12w128461 0.0 1025139
11:00+16nw336563 0.0 1024977
14:00+19nw44508 0.0 10231410
17:00+18nw55505 0.0 10231254
20:00+13nw259068 0.1 1024521
28 may, sat
sat2823:00+11w119530 0.1 102550
02:00+7wsw119619 0.1 102512
05:00+7ne129542 0.0 102433
08:00+8ne358822 0.0 1024269
11:00+12nne455295 0.0 1022781
14:00+14nne454577 0.0 10211030
17:00+14nne56525 0.0 10201154
20:00+10ne49665 0.0 1021739
29 may, sun
sun2923:00+6ne298030 0.0 1023223
02:00+4ene26859 0.0 1022110
05:00+3ne258745 0.0 102196
08:00+6ne36730 0.0 1021307
11:00+11nne57515 0.0 10191088
14:00+14nne5550100 0.0 10181398
17:00+14nne464992 0.0 10181367
20:00+10ne38605 0.0 1019565